Regional Weather Roundup
Issued by NWS Melbourne, FL

Current Version | Previous Version | Text Only | Print | Product List | Glossary On
Versions: 1 2 3 4 5 6 7 8 9 10 11 12 13 14 15 16 17 18 19 20 21 22 23 24 25 26 27 28 29 30 31 32 33 34 35 36 37 38 39 40 41 42 43 44 45 46 47 48 49 50
000
ASUS42 KMLB 160911
RWRMLB
HOURLY WEATHER ROUNDUP AROUND FLORIDA
NATIONAL WEATHER SERVICE OFFICE MELBOURNE FL
400 AM EST SAT FEB 16 2019

CITY           SKY/WX    TMP DP  RH WIND       PRES   REMARKS
MELBOURNE      FAIR      58  55  90 W3        29.91R
FORT PIERCE    FAIR      55  53  93 NW3       29.92R
ORLANDO INTL   MOCLDY    57  53  86 CALM      29.92R
DAYTONA BEACH  FAIR      55  55 100 CALM      29.91S
VERO BEACH     FAIR      56  54  93 W7        29.92R
$$
...ELSEWHERE ACROSS CENTRAL FLORIDA...

CITY           SKY/WX    TMP DP  RH WIND       PRES   REMARKS
PATRICK AFB    FAIR      62  61  97 NW6       29.91R
KSC            FAIR      56  54  92 CALM      29.90R
CAPE CANAVERAL FAIR      56  54  92 CALM      29.90R
ORLANDO EXEC   FAIR      59  54  83 CALM      29.91R
LEESBURG       FAIR      58  57  97 CALM      29.91F
SANFORD        FAIR      58  55  90 CALM      29.90S
DELAND         FAIR      55  54  94 CALM      29.90S
WINTER HAVEN   FAIR      58  55  90 CALM      29.94R
KISSIMMEE      FAIR      57  54  89 CALM      29.94R
OKEECHOBEE     FAIR      52  52 100 CALM      29.91R FOG
TAMPA          MOCLDY    62  60  93 CALM      29.92R
$$
...NORTHERN FLORIDA...

CITY           SKY/WX    TMP DP  RH WIND       PRES   REMARKS
PALM COAST     FAIR      51  50  95 CALM      29.90S
ST AUGUSTINE   MOCLDY    57  52  83 S6        29.90F
OCALA          FAIR      50  48  93 S3        29.91S
GAINESVILLE    FAIR      55  50  83 CALM      29.92S
JACKSONVILLE   MOCLDY    56  50  80 SW7       29.86F
TALLAHASSEE    CLOUDY    60  60 100 CALM      29.86S
$$
...ALONG THE SOUTHEAST COAST TO THE KEYS...

CITY           SKY/WX    TMP DP  RH WIND       PRES   REMARKS
STUART         FAIR      59  55  88 CALM      29.92S
WEST PALM BCH  FAIR      60  56  86 W7        29.90F
MIAMI          FAIR      64  60  87 CALM      29.91F
KEY WEST       MOCLDY    71  64  78 NE5       29.91F
$$
...MARINE REPORTS...

STATION/POSITION TIME  TEMP    WIND        PRES    WAVE   SWELL
                       AIR SEA DIR/SP/G            HT/PER HT/PER
                 (UTC) (F)     (DEG/KT/KT) (MB)    (FT/S) (FT/S)
ST AUGUSTINE FP  0900   59 59  210/  6/  7 1012.4F
20NM E CAPE CANA 0850   66     320/ 10/ 12 1013.2R   3/ 8   3/ 8
TRIDENT PIER     0848   61 65  330/  4/  4 1014.1R
SEBASTIAN INLET  0845   62 62  280/  6     1014.0R
4NM E PORT CANAV 0900      62                N/A     2/ 8
SETTLEMENT PT GB 0900   74     220/ 15/ 17 1012.4S
$$



USA.gov is the U.S. government's official web portal to all federal, state and local government web resources and services.